| time (UTC) | temp F | wind direction | speed MPH | gust MPH | rain 1hr in | rain 24hr in | rain mn in | humidity % | barometer mb |
| 20260505073539 | 49 | 342 | 0.0 | 2.0 | 0.00 | 0.01 | 0.01 | 73 | 1043.2 |
| 20260505073038 | 49 | 302 | 0.0 | 2.0 | 0.00 | 0.01 | 0.01 | 73 | 1043.8 |
| 20260505072533 | 49 | 280 | 0.0 | 1.0 | 0.00 | 0.01 | 0.01 | 74 | 1044.1 |
| 20260505072030 | 49 | 265 | 2.0 | 3.0 | 0.00 | 0.01 | 0.01 | 75 | 1044.2 |
| 20260505071525 | 49 | 275 | 2.0 | 2.0 | 0.00 | 0.01 | 0.01 | 76 | 1044.5 |
| 20260505071024 | 48 | 287 | 2.0 | 3.0 | 0.00 | 0.01 | 0.01 | 76 | 1044.2 |
| 20260505070520 | 48 | 308 | 0.0 | 0.0 | 0.00 | 0.01 | 0.01 | 80 | 1043.9 |
| 20260505070016 | 48 | 297 | 0.0 | 1.0 | 0.00 | 0.01 | 0.01 | 81 | 1044.5 |
| 20260505065512 | 47 | 285 | 0.0 | 0.0 | 0.00 | 0.01 | 0.01 | 83 | 1044.9 |
| 20260505065009 | 47 | 301 | 0.0 | 0.0 | 0.00 | 0.01 | 0.01 | 85 | 1045.0 |
| 20260505064506 | 47 | 287 | 0.0 | 1.0 | 0.00 | 0.01 | 0.01 | 86 | 1045.0 |
| 20260505064005 | 47 | 296 | 0.0 | 0.0 | 0.00 | 0.01 | 0.01 | 85 | 1045.1 |
| 20260505063501 | 48 | 284 | 1.0 | 2.0 | 0.00 | 0.01 | 0.01 | 85 | 1045.1 |
| 20260505062957 | 48 | 278 | 1.0 | 2.0 | 0.00 | 0.01 | 0.01 | 81 | 1045.0 |
| 20260505062454 | 49 | 299 | 0.0 | 0.0 | 0.00 | 0.01 | 0.01 | 79 | 1044.7 |
| 20260505061951 | 49 | 272 | 1.0 | 1.0 | 0.07 | 0.01 | 0.01 | 73 | 1044.6 |
| 20260505061449 | 50 | 290 | 1.0 | 2.0 | 0.07 | 0.01 | 0.01 | 66 | 1044.7 |
| 20260505060946 | 51 | 346 | 1.0 | 2.0 | 0.00 | 0.00 | 0.00 | 61 | 1044.4 |
| 20260505060443 | 51 | 15 | 2.0 | 3.0 | 0.00 | 0.00 | 0.00 | 58 | 1044.6 |
| 20260505055940 | 51 | 273 | 2.0 | 2.0 | 0.00 | 0.00 | 0.00 | 58 | 1044.8 |
| 20260505055436 | 51 | 315 | 3.0 | 5.0 | 0.00 | 0.00 | 0.00 | 57 | 1044.8 |
| 20260505054932 | 51 | 278 | 5.0 | 7.0 | 0.00 | 0.00 | 0.00 | 56 | 1044.7 |
| 20260505054430 | 51 | 316 | 2.0 | 2.0 | 0.00 | 0.00 | 0.00 | 56 | 1044.2 |
| 20260505053928 | 52 | 316 | 2.0 | 2.0 | 0.00 | 0.00 | 0.00 | 55 | 1044.0 |
| 20260505053425 | 52 | 302 | 4.0 | 6.0 | 0.00 | 0.00 | 0.00 | 54 | 1044.2 |
| 20260505052921 | 52 | 11 | 1.0 | 5.0 | 0.00 | 0.00 | 0.00 | 54 | 1044.1 |
| 20260505052418 | 52 | 260 | 1.0 | 5.0 | 0.00 | 0.00 | 0.00 | 56 | 1043.9 |
| 20260505051916 | 52 | 273 | 1.0 | 3.0 | 0.00 | 0.00 | 0.00 | 55 | 1043.6 |
| 20260505051413 | 52 | 356 | 4.0 | 8.0 | 0.00 | 0.00 | 0.00 | 54 | 1043.8 |
| 20260505050911 | 52 | 289 | 2.0 | 5.0 | 0.00 | 0.00 | 0.00 | 55 | 1043.8 |
| 20260505050409 | 52 | 224 | 3.0 | 8.0 | 0.00 | 0.00 | 0.00 | 53 | 1043.6 |
| 20260505041336 | 53 | 229 | 1.0 | 5.0 | 0.00 | 0.00 | 0.00 | 55 | 1043.5 |
| 20260505040833 | 54 | 11 | 4.0 | 8.0 | 0.00 | 0.00 | 0.00 | 53 | 1043.6 |
| 20260505040331 | 55 | 324 | 2.0 | 8.0 | 0.00 | 0.00 | 0.00 | 51 | 1043.8 |
| 20260505035827 | 55 | 265 | 5.0 | 9.0 | 0.00 | 0.00 | 0.00 | 48 | 1043.4 |
| 20260505035323 | 55 | 275 | 4.0 | 7.0 | 0.00 | 0.00 | 0.00 | 47 | 1043.4 |
| 20260505034821 | 56 | 351 | 6.0 | 17.0 | 0.00 | 0.00 | 0.00 | 46 | 1043.6 |
| 20260505034317 | 56 | 320 | 4.0 | 8.0 | 0.00 | 0.00 | 0.00 | 46 | 1043.5 |
| 20260505033814 | 55 | 300 | 5.0 | 14.0 | 0.00 | 0.00 | 0.00 | 45 | 1043.2 |
| 20260505033311 | 55 | 298 | 3.0 | 6.0 | 0.00 | 0.00 | 0.00 | 46 | 1042.6 |
| 20260505032810 | 55 | 265 | 3.0 | 6.0 | 0.00 | 0.00 | 0.00 | 46 | 1042.9 |
| 20260505032305 | 56 | 282 | 5.0 | 10.0 | 0.00 | 0.00 | 0.00 | 45 | 1043.2 |
| 20260505031802 | 56 | 271 | 4.0 | 10.0 | 0.00 | 0.00 | 0.00 | 44 | 1043.1 |
| 20260505031253 | 56 | 290 | 5.0 | 8.0 | 0.00 | 0.00 | 0.00 | 44 | 1043.1 |
| 20260505030750 | 56 | 255 | 3.0 | 8.0 | 0.00 | 0.00 | 0.00 | 44 | 1042.9 |
| 20260505030246 | 56 | 320 | 3.0 | 7.0 | 0.00 | 0.00 | 0.00 | 44 | 1042.9 |
| 20260505025741 | 56 | 92 | 4.0 | 8.0 | 0.00 | 0.00 | 0.00 | 43 | 1042.6 |
| 20260505025240 | 56 | 283 | 2.0 | 9.0 | 0.00 | 0.00 | 0.00 | 44 | 1042.4 |
| 20260505024738 | 57 | 8 | 4.0 | 8.0 | 0.00 | 0.00 | 0.00 | 43 | 1042.4 |
| 20260505024235 | 57 | 301 | 5.0 | 10.0 | 0.00 | 0.00 | 0.00 | 43 | 1042.4 |
| 20260505023732 | 57 | 350 | 7.0 | 13.0 | 0.00 | 0.00 | 0.00 | 43 | 1042.2 |
| 20260505023229 | 57 | 14 | 4.0 | 11.0 | 0.00 | 0.00 | 0.00 | 43 | 1042.1 |
| 20260505022727 | 58 | 243 | 4.0 | 8.0 | 0.00 | 0.00 | 0.00 | 44 | 1042.5 |
| 20260505022224 | 58 | 312 | 7.0 | 13.0 | 0.00 | 0.00 | 0.00 | 42 | 1042.4 |
| 20260505021720 | 58 | 296 | 3.0 | 5.0 | 0.00 | 0.00 | 0.00 | 43 | 1042.0 |
| 20260505021218 | 58 | 39 | 3.0 | 13.0 | 0.00 | 0.00 | 0.00 | 42 | 1042.1 |
| 20260505020713 | 58 | 262 | 5.0 | 8.0 | 0.00 | 0.00 | 0.00 | 42 | 1041.8 |
| 20260505020209 | 58 | 258 | 5.0 | 11.0 | 0.00 | 0.00 | 0.00 | 41 | 1041.6 |
| 20260505015706 | 59 | 269 | 4.0 | 7.0 | 0.00 | 0.00 | 0.00 | 40 | 1041.4 |
| 20260505015202 | 59 | 247 | 4.0 | 7.0 | 0.00 | 0.00 | 0.00 | 40 | 1041.9 |
| 20260505014659 | 59 | 329 | 8.0 | 10.0 | 0.00 | 0.00 | 0.00 | 40 | 1041.6 |
| 20260505014156 | 60 | 257 | 5.0 | 11.0 | 0.00 | 0.00 | 0.00 | 39 | 1041.5 |
| 20260505013653 | 60 | 273 | 5.0 | 8.0 | 0.00 | 0.00 | 0.00 | 39 | 1041.2 |
| 20260505013150 | 60 | 266 | 6.0 | 7.0 | 0.00 | 0.00 | 0.00 | 40 | 1041.4 |
| 20260505012644 | 60 | 319 | 2.0 | 9.0 | 0.00 | 0.00 | 0.00 | 40 | 1041.1 |
| 20260505012140 | 61 | 35 | 2.0 | 8.0 | 0.00 | 0.00 | 0.00 | 40 | 1041.1 |
| 20260505011636 | 62 | 256 | 5.0 | 11.0 | 0.00 | 0.00 | 0.00 | 39 | 1040.6 |
| 20260505011133 | 63 | 247 | 6.0 | 11.0 | 0.00 | 0.00 | 0.00 | 37 | 1040.8 |
| 20260505010628 | 64 | 246 | 4.0 | 9.0 | 0.00 | 0.00 | 0.00 | 36 | 1040.2 |
| 20260505010125 | 64 | 315 | 4.0 | 9.0 | 0.00 | 0.00 | 0.00 | 35 | 1040.2 |
| 20260505005621 | 64 | 264 | 2.0 | 8.0 | 0.00 | 0.00 | 0.00 | 35 | 1040.1 |
| 20260505005118 | 64 | 118 | 3.0 | 7.0 | 0.00 | 0.00 | 0.00 | 35 | 1040.1 |
| 20260505004615 | 65 | 271 | 5.0 | 8.0 | 0.00 | 0.00 | 0.00 | 34 | 1040.2 |
| 20260505004112 | 65 | 305 | 6.0 | 14.0 | 0.00 | 0.00 | 0.00 | 34 | 1039.8 |
| 20260505003609 | 66 | 255 | 3.0 | 13.0 | 0.00 | 0.00 | 0.00 | 33 | 1039.6 |
| 20260505003107 | 66 | 280 | 1.0 | 7.0 | 0.00 | 0.00 | 0.00 | 34 | 1039.4 |
| 20260505002602 | 67 | 263 | 6.0 | 9.0 | 0.00 | 0.00 | 0.00 | 32 | 1039.3 |
| 20260505002101 | 68 | 149 | 3.0 | 7.0 | 0.00 | 0.00 | 0.00 | 32 | 1039.0 |
| 20260505001558 | 69 | 1 | 5.0 | 7.0 | 0.00 | 0.00 | 0.00 | 31 | 1039.1 |
| 20260505001055 | 69 | 357 | 5.0 | 6.0 | 0.00 | 0.00 | 0.00 | 32 | 1038.9 |
| 20260505000552 | 69 | 283 | 6.0 | 13.0 | 0.00 | 0.00 | 0.00 | 31 | 1039.0 |
| 20260505000050 | 70 | 38 | 11.0 | 16.0 | 0.00 | 0.00 | 0.00 | 31 | 1039.1 |
| 20260504235546 | 71 | 244 | 5.0 | 11.0 | 0.00 | 0.00 | 0.00 | 31 | 1038.9 |
| 20260504235043 | 72 | 44 | 4.0 | 14.0 | 0.00 | 0.00 | 0.00 | 32 | 1038.7 |
| 20260504234540 | 73 | 268 | 1.0 | 8.0 | 0.00 | 0.00 | 0.00 | 31 | 1038.4 |
| 20260504234037 | 73 | 97 | 3.0 | 10.0 | 0.00 | 0.00 | 0.00 | 31 | 1038.5 |
| 20260504233532 | 73 | 254 | 7.0 | 15.0 | 0.00 | 0.00 | 0.00 | 30 | 1038.4 |
| 20260504233029 | 74 | 299 | 5.0 | 7.0 | 0.00 | 0.00 | 0.00 | 30 | 1038.3 |
| 20260504232526 | 75 | 324 | 5.0 | 14.0 | 0.00 | 0.00 | 0.00 | 29 | 1038.4 |
| 20260504232024 | 74 | 264 | 5.0 | 9.0 | 0.00 | 0.00 | 0.00 | 30 | 1038.3 |
| 20260504231521 | 75 | 319 | 5.0 | 9.0 | 0.00 | 0.00 | 0.00 | 30 | 1038.2 |
| 20260504231016 | 75 | 268 | 11.0 | 15.0 | 0.00 | 0.00 | 0.00 | 29 | 1038.1 |
| 20260504230513 | 75 | 238 | 4.0 | 10.0 | 0.00 | 0.00 | 0.00 | 30 | 1038.0 |
| 20260504230012 | 76 | 244 | 4.0 | 16.0 | 0.00 | 0.00 | 0.00 | 28 | 1038.1 |
| 20260504225509 | 77 | 245 | 3.0 | 8.0 | 0.00 | 0.00 | 0.00 | 29 | 1038.0 |
| 20260504225006 | 76 | 298 | 3.0 | 8.0 | 0.00 | 0.00 | 0.00 | 28 | 1037.7 |
| 20260504224502 | 77 | 283 | 5.0 | 7.0 | 0.00 | 0.00 | 0.00 | 29 | 1037.9 |
| 20260504223959 | 76 | 246 | 4.0 | 10.0 | 0.00 | 0.00 | 0.00 | 28 | 1037.8 |
| 20260504223456 | 77 | 282 | 7.0 | 14.0 | 0.00 | 0.00 | 0.00 | 28 | 1037.4 |
| 20260504222951 | 77 | 1 | 5.0 | 15.0 | 0.00 | 0.00 | 0.00 | 28 | 1037.3 |
| 20260504222449 | 77 | 267 | 3.0 | 9.0 | 0.00 | 0.00 | 0.00 | 29 | 1037.4 |
| 20260504221946 | 77 | 237 | 8.0 | 11.0 | 0.00 | 0.00 | 0.00 | 28 | 1037.3 |
| 20260504221443 | 77 | 287 | 4.0 | 13.0 | 0.00 | 0.00 | 0.00 | 29 | 1037.1 |
| 20260504220941 | 77 | 300 | 8.0 | 10.0 | 0.00 | 0.00 | 0.00 | 28 | 1037.2 |
| 20260504220437 | 78 | 244 | 4.0 | 8.0 | 0.00 | 0.00 | 0.00 | 29 | 1037.0 |
| 20260504215934 | 78 | 298 | 4.0 | 8.0 | 0.00 | 0.00 | 0.00 | 28 | 1036.8 |
| 20260504215431 | 79 | 211 | 1.0 | 13.0 | 0.00 | 0.00 | 0.00 | 30 | 1036.7 |
| 20260504214927 | 79 | 265 | 5.0 | 9.0 | 0.00 | 0.00 | 0.00 | 29 | 1036.7 |
| 20260504214424 | 80 | 304 | 2.0 | 6.0 | 0.00 | 0.00 | 0.00 | 30 | 1036.5 |
| 20260504213920 | 80 | 290 | 3.0 | 5.0 | 0.00 | 0.00 | 0.00 | 31 | 1036.6 |
| 20260504213416 | 79 | 272 | 5.0 | 10.0 | 0.00 | 0.00 | 0.00 | 32 | 1036.6 |
| 20260504212914 | 79 | 283 | 6.0 | 16.0 | 0.00 | 0.00 | 0.00 | 32 | 1036.3 |
| 20260504212409 | 80 | 249 | 10.0 | 20.0 | 0.00 | 0.00 | 0.00 | 31 | 1036.3 |
| 20260504211908 | 81 | 261 | 6.0 | 16.0 | 0.00 | 0.00 | 0.00 | 33 | 1036.0 |
| 20260504211404 | 80 | 337 | 6.0 | 11.0 | 0.00 | 0.00 | 0.00 | 33 | 1036.1 |
| 20260504210901 | 80 | 323 | 4.0 | 10.0 | 0.00 | 0.00 | 0.00 | 33 | 1036.0 |
| 20260504210358 | 80 | 253 | 11.0 | 15.0 | 0.00 | 0.00 | 0.00 | 32 | 1036.1 |
| 20260504205855 | 80 | 266 | 7.0 | 10.0 | 0.00 | 0.00 | 0.00 | 32 | 1035.9 |
| 20260504205353 | 80 | 306 | 6.0 | 21.0 | 0.00 | 0.00 | 0.00 | 33 | 1036.3 |
| 20260504204851 | 80 | 258 | 5.0 | 17.0 | 0.00 | 0.00 | 0.00 | 33 | 1035.9 |
| 20260504204349 | 80 | 281 | 8.0 | 13.0 | 0.00 | 0.00 | 0.00 | 33 | 1036.0 |
| 20260504203848 | 79 | 262 | 6.0 | 8.0 | 0.00 | 0.00 | 0.00 | 34 | 1036.0 |
| 20260504203344 | 79 | 300 | 4.0 | 13.0 | 0.00 | 0.00 | 0.00 | 35 | 1036.3 |
| 20260504202840 | 79 | 278 | 6.0 | 13.0 | 0.00 | 0.00 | 0.00 | 33 | 1035.9 |
| 20260504202338 | 79 | 278 | 8.0 | 14.0 | 0.00 | 0.00 | 0.00 | 34 | 1036.3 |
| 20260504201834 | 80 | 241 | 7.0 | 9.0 | 0.00 | 0.00 | 0.00 | 31 | 1035.9 |
| 20260504201331 | 83 | 292 | 10.0 | 16.0 | 0.00 | 0.00 | 0.00 | 29 | 1036.1 |
| 20260504200829 | 83 | 271 | 7.0 | 11.0 | 0.00 | 0.00 | 0.00 | 29 | 1035.9 |
| 20260504200325 | 82 | 280 | 4.0 | 11.0 | 0.00 | 0.00 | 0.00 | 27 | 1036.0 |
| 20260504195821 | 82 | 248 | 4.0 | 9.0 | 0.00 | 0.00 | 0.00 | 29 | 1036.1 |
| 20260504195317 | 82 | 284 | 8.0 | 11.0 | 0.00 | 0.00 | 0.00 | 28 | 1036.1 |
| 20260504194814 | 82 | 270 | 4.0 | 16.0 | 0.00 | 0.00 | 0.00 | 29 | 1036.1 |
| 20260504194310 | 80 | 264 | 9.0 | 14.0 | 0.00 | 0.00 | 0.00 | 28 | 1036.3 |
| 20260504193807 | 82 | 264 | 11.0 | 14.0 | 0.00 | 0.00 | 0.00 | 26 | 1036.0 |
| 20260504193304 | 82 | 253 | 7.0 | 13.0 | 0.00 | 0.00 | 0.00 | 27 | 1036.0 |
| 20260504192803 | 82 | 280 | 5.0 | 13.0 | 0.00 | 0.00 | 0.00 | 27 | 1035.9 |
| 20260504192300 | 82 | 234 | 3.0 | 9.0 | 0.00 | 0.00 | 0.00 | 30 | 1035.9 |
| 20260504191759 | 82 | 275 | 2.0 | 11.0 | 0.00 | 0.00 | 0.00 | 33 | 1036.0 |
| 20260504191255 | 81 | 287 | 9.0 | 11.0 | 0.00 | 0.00 | 0.00 | 29 | 1035.9 |
| 20260504190751 | 81 | 311 | 5.0 | 13.0 | 0.00 | 0.00 | 0.00 | 29 | 1036.4 |
| 20260504190247 | 81 | 256 | 11.0 | 13.0 | 0.00 | 0.00 | 0.00 | 31 | 1036.5 |
| 20260504185744 | 81 | 280 | 7.0 | 14.0 | 0.00 | 0.00 | 0.00 | 29 | 1036.4 |
| 20260504185241 | 81 | 255 | 4.0 | 11.0 | 0.00 | 0.00 | 0.00 | 33 | 1036.3 |
| 20260504184737 | 81 | 258 | 9.0 | 11.0 | 0.00 | 0.00 | 0.00 | 31 | 1036.3 |
| 20260504184233 | 81 | 276 | 7.0 | 13.0 | 0.00 | 0.00 | 0.00 | 29 | 1036.4 |
| 20260504183729 | 80 | 254 | 12.0 | 20.0 | 0.00 | 0.00 | 0.00 | 29 | 1036.4 |
| 20260504183226 | 80 | 245 | 5.0 | 15.0 | 0.00 | 0.00 | 0.00 | 33 | 1036.6 |
| 20260504182724 | 80 | 278 | 10.0 | 17.0 | 0.00 | 0.00 | 0.00 | 31 | 1036.5 |
| 20260504182221 | 80 | 291 | 7.0 | 15.0 | 0.00 | 0.00 | 0.00 | 32 | 1036.3 |
| 20260504181719 | 80 | 249 | 5.0 | 15.0 | 0.00 | 0.00 | 0.00 | 34 | 1036.6 |
| 20260504181216 | 80 | 305 | 10.0 | 17.0 | 0.00 | 0.00 | 0.00 | 35 | 1036.4 |
| 20260504180715 | 79 | 295 | 9.0 | 15.0 | 0.00 | 0.00 | 0.00 | 32 | 1036.6 |
| 20260504180213 | 79 | 289 | 11.0 | 15.0 | 0.00 | 0.00 | 0.00 | 33 | 1036.5 |
| 20260504175710 | 80 | 271 | 12.0 | 16.0 | 0.00 | 0.00 | 0.00 | 34 | 1036.6 |
| 20260504175207 | 80 | 260 | 14.0 | 18.0 | 0.00 | 0.00 | 0.00 | 32 | 1036.5 |
| 20260504174705 | 80 | 273 | 6.0 | 15.0 | 0.00 | 0.00 | 0.00 | 33 | 1036.6 |
| 20260504174203 | 80 | 286 | 12.0 | 16.0 | 0.00 | 0.00 | 0.00 | 32 | 1036.4 |
| 20260504173659 | 80 | 258 | 5.0 | 10.0 | 0.00 | 0.00 | 0.00 | 33 | 1036.5 |
| 20260504173156 | 80 | 276 | 11.0 | 15.0 | 0.00 | 0.00 | 0.00 | 32 | 1036.4 |
| 20260504172652 | 80 | 299 | 9.0 | 14.0 | 0.00 | 0.00 | 0.00 | 32 | 1036.5 |
| 20260504172149 | 80 | 264 | 6.0 | 16.0 | 0.00 | 0.00 | 0.00 | 33 | 1036.5 |
| 20260504171645 | 80 | 268 | 10.0 | 15.0 | 0.00 | 0.00 | 0.00 | 31 | 1036.3 |
| 20260504171143 | 80 | 282 | 9.0 | 13.0 | 0.00 | 0.00 | 0.00 | 34 | 1036.4 |
| 20260504170639 | 80 | 175 | 3.0 | 13.0 | 0.00 | 0.00 | 0.00 | 33 | 1036.5 |
| 20260504170137 | 80 | 230 | 5.0 | 6.0 | 0.00 | 0.00 | 0.00 | 33 | 1036.1 |
| 20260504151022 | 72 | 243 | 2.0 | 8.0 | 0.00 | 0.00 | 0.00 | 49 | 1037.0 |
| 20260504150519 | 72 | 256 | 2.0 | 5.0 | 0.00 | 0.00 | 0.00 | 49 | 1037.1 |
| 20260504140945 | 67 | 213 | 1.0 | 2.0 | 0.00 | 0.00 | 0.00 | 53 | 1037.5 |
| 20260504140442 | 68 | 282 | 0.0 | 0.0 | 0.00 | 0.00 | 0.00 | 55 | 1037.5 |
| 20260504130406 | 58 | 238 | 1.0 | 2.0 | 0.00 | 0.00 | 0.00 | 67 | 1038.0 |
| 20260504110253 | 48 | 298 | 0.0 | 0.0 | 0.00 | 0.00 | 0.00 | 82 | 1038.3 |
| 20260504100211 | 47 | 299 | 0.0 | 0.0 | 0.00 | 0.00 | 0.00 | 83 | 1039.1 |
| 20260504090134 | 47 | 312 | 0.0 | 0.0 | 0.00 | 0.00 | 0.00 | 83 | 1039.6 |
| 20260504081604 | 48 | 304 | 0.0 | 0.0 | 0.00 | 0.00 | 0.00 | 76 | 1040.2 |
| 20260504081100 | 48 | 304 | 0.0 | 0.0 | 0.00 | 0.00 | 0.00 | 78 | 1040.1 |
| 20260504080557 | 48 | 299 | 0.0 | 0.0 | 0.00 | 0.00 | 0.00 | 78 | 1040.3 |